FREGAT R/B (44851 NORAD) Tracking and Keplerian Element Data

This shows tracking and keplerian element data for the satellite.

Feedback or suggestion? Click here.




ElementValue
Catalog44851
NameFREGAT R/B
Epoch Orbit0
Epoch Day345.64159169
Epoch Year2019
RAAN153.3796
Inclination64.8061
Eccentricity0.0071082
Argument of Perigee62.2794
Mean Anonmoly92.096
Mean Motion2.10619712
Decay Rate9.6E-07
L11 44851U 19088B 19345.64159169 .00000096 00000-0 00000+0 0 9995
L22 44851 64.8061 153.3796 0071082 62.2794 92.0960 2.10619712 06

Live tracking and technical data element details for FREGAT R/B (NORAD 44851). FREGAT R/B can be tracked NOW for your location showing map with azimuth and elevation plus other details from your city location.

Track the satellite on the map from your city or location and see movement details for azimuth, elevation, latitude, longitude, range, height, and movement on the map or in text.







IsCatalogInMostPopularTable: catalog: 44851, numindb: 8
Update: records affected: 1



GetName: 44851 FREGAT R/B

Hit Count: updated at: Sat, 18 Jan 2020 18:27:52 GMT